| time (UTC) | temp C | wind direction | speed KPH | gust KPH | rain 1hr cm | rain 24hr cm | rain mn cm | humidity % | barometer mb |
| 20260505071501 | 6 | 11 | 1.6 | 4.8 | 0.00 | 0.15 | 0.03 | 90 | 1001.6 |
| 20260505071458 | 6 | 11 | 1.6 | 4.8 | 0.00 | 0.15 | 0.03 | 90 | 1010.6 |
| 20260505071005 | 6 | 11 | 1.6 | 4.8 | 0.00 | 0.15 | 0.03 | 90 | 1010.6 |
| 20260505070504 | 6 | 11 | 1.6 | 4.8 | 0.03 | 0.15 | 0.03 | 91 | 1010.5 |
| 20260505070006 | 6 | 11 | 0.0 | 3.2 | 0.03 | 0.15 | 0.03 | 90 | 1010.6 |
| 20260505070003 | 6 | 11 | 0.0 | 3.2 | 0.03 | 0.15 | 0.03 | 90 | 1001.6 |
| 20260505065504 | 6 | 11 | 0.0 | 1.6 | 0.03 | 0.15 | 0.03 | 91 | 1010.6 |
| 20260505065005 | 6 | 11 | 0.0 | 1.6 | 0.03 | 0.15 | 0.03 | 91 | 1010.7 |
| 20260505064504 | 6 | 11 | 0.0 | 3.2 | 0.03 | 0.15 | 0.03 | 90 | 1010.6 |
| 20260505064502 | 6 | 11 | 0.0 | 3.2 | 0.03 | 0.15 | 0.03 | 90 | 1001.7 |
| 20260505064004 | 6 | 11 | 1.6 | 3.2 | 0.05 | 0.15 | 0.03 | 90 | 1010.7 |
| 20260505063504 | 6 | 11 | 0.0 | 6.4 | 0.05 | 0.15 | 0.03 | 90 | 1010.6 |
| 20260505063002 | 6 | 11 | 3.2 | 6.4 | 0.05 | 0.15 | 0.03 | 90 | 1001.5 |
| 20260505062004 | 6 | 11 | 3.2 | 6.4 | 0.05 | 0.15 | 0.03 | 89 | 1010.5 |
| 20260505061509 | 6 | 11 | 3.2 | 8.0 | 0.05 | 0.15 | 0.03 | 89 | 1001.6 |
| 20260505061505 | 6 | 11 | 3.2 | 8.0 | 0.05 | 0.15 | 0.03 | 89 | 1010.6 |
| 20260505061004 | 6 | 11 | 4.8 | 8.0 | 0.08 | 0.15 | 0.03 | 90 | 1010.7 |
| 20260505060504 | 6 | 11 | 1.6 | 6.4 | 0.05 | 0.13 | 0.00 | 91 | 1010.7 |
| 20260505060010 | 6 | 11 | 1.6 | 9.7 | 0.05 | 0.13 | 0.00 | 91 | 1010.9 |
| 20260505060004 | 6 | 11 | 0.0 | 9.7 | 0.05 | 0.13 | 0.00 | 91 | 1001.9 |
| 20260505055505 | 6 | 11 | 4.8 | 9.7 | 0.05 | 0.13 | 0.13 | 91 | 1011.2 |
| 20260505055005 | 6 | 341 | 3.2 | 4.8 | 0.05 | 0.13 | 0.13 | 92 | 1011.0 |
| 20260505054505 | 6 | 341 | 1.6 | 4.8 | 0.05 | 0.13 | 0.13 | 92 | 1011.0 |
| 20260505054503 | 6 | 341 | 1.6 | 4.8 | 0.05 | 0.13 | 0.13 | 92 | 1002.0 |
| 20260505054006 | 6 | 341 | 0.0 | 8.0 | 0.05 | 0.10 | 0.10 | 92 | 1011.0 |
| 20260505053505 | 6 | 341 | 1.6 | 8.0 | 0.05 | 0.10 | 0.10 | 91 | 1011.0 |
| 20260505053006 | 6 | 321 | 1.6 | 4.8 | 0.08 | 0.10 | 0.10 | 91 | 1010.9 |
| 20260505053002 | 6 | 321 | 1.6 | 4.8 | 0.08 | 0.10 | 0.10 | 91 | 1001.9 |
| 20260505052505 | 6 | 321 | 0.0 | 8.0 | 0.08 | 0.10 | 0.10 | 90 | 1011.0 |
| 20260505052005 | 6 | 321 | 1.6 | 8.0 | 0.10 | 0.10 | 0.10 | 90 | 1011.0 |
| 20260505051507 | 6 | 321 | 0.0 | 6.4 | 0.10 | 0.10 | 0.10 | 90 | 1002.0 |
| 20260505051504 | 6 | 321 | 1.6 | 6.4 | 0.10 | 0.10 | 0.10 | 90 | 1011.0 |
| 20260505051006 | 6 | 321 | 1.6 | 12.9 | 0.08 | 0.08 | 0.08 | 90 | 1011.0 |
| 20260505050504 | 6 | 342 | 6.4 | 14.5 | 0.08 | 0.08 | 0.08 | 89 | 1010.8 |
| 20260505050107 | 6 | 315 | 6.4 | 14.5 | 0.08 | 0.08 | 0.08 | 89 | 1001.7 |
| 20260505041508 | 8 | 285 | 8.0 | 12.9 | 0.00 | 0.00 | 0.00 | 68 | 1001.4 |
| 20260505041005 | 8 | 301 | 8.0 | 12.9 | 0.00 | 0.00 | 0.00 | 68 | 1010.5 |
| 20260505040505 | 8 | 277 | 4.8 | 11.3 | 0.00 | 0.00 | 0.00 | 69 | 1010.4 |
| 20260505040006 | 8 | 291 | 4.8 | 6.4 | 0.00 | 0.00 | 0.00 | 71 | 1010.4 |
| 20260505040004 | 8 | 291 | 4.8 | 6.4 | 0.00 | 0.00 | 0.00 | 71 | 1001.1 |
| 20260505035504 | 8 | 9 | 1.6 | 3.2 | 0.00 | 0.00 | 0.00 | 70 | 1010.3 |
| 20260505035005 | 8 | 9 | 1.6 | 3.2 | 0.00 | 0.00 | 0.00 | 72 | 1010.1 |
| 20260505034504 | 8 | 9 | 0.0 | 1.6 | 0.00 | 0.00 | 0.00 | 73 | 1010.2 |
| 20260505034502 | 8 | 9 | 0.0 | 1.6 | 0.00 | 0.00 | 0.00 | 73 | 1000.9 |
| 20260505034007 | 8 | 9 | 0.0 | 3.2 | 0.00 | 0.00 | 0.00 | 71 | 1010.3 |
| 20260505033005 | 8 | 9 | 0.0 | 0.0 | 0.00 | 0.00 | 0.00 | 72 | 1010.1 |
| 20260505032459 | 8 | 9 | 0.0 | 1.6 | 0.00 | 0.00 | 0.00 | 70 | 1010.1 |
| 20260505031505 | 8 | 9 | 0.0 | 3.2 | 0.00 | 0.00 | 0.00 | 68 | 1000.8 |
| 20260505031005 | 8 | 9 | 1.6 | 3.2 | 0.00 | 0.00 | 0.00 | 66 | 1010.0 |
| 20260505030504 | 8 | 9 | 0.0 | 0.0 | 0.00 | 0.00 | 0.00 | 67 | 1010.0 |
| 20260505030006 | 8 | 9 | 0.0 | 0.0 | 0.00 | 0.00 | 0.00 | 66 | 1010.0 |
| 20260505030003 | 8 | 9 | 0.0 | 0.0 | 0.00 | 0.00 | 0.00 | 66 | 1000.7 |
| 20260505025504 | 8 | 9 | 0.0 | 0.0 | 0.00 | 0.00 | 0.00 | 66 | 1010.0 |
| 20260505024505 | 8 | 9 | 0.0 | 0.0 | 0.00 | 0.00 | 0.00 | 66 | 1009.7 |
| 20260505024502 | 8 | 9 | 0.0 | 0.0 | 0.00 | 0.00 | 0.00 | 66 | 1000.4 |
| 20260505024004 | 9 | 9 | 0.0 | 4.8 | 0.00 | 0.00 | 0.00 | 66 | 1009.6 |
| 20260505023505 | 9 | 9 | 0.0 | 4.8 | 0.00 | 0.00 | 0.00 | 67 | 1009.6 |
| 20260505023008 | 9 | 9 | 0.0 | 1.6 | 0.00 | 0.00 | 0.00 | 67 | 1000.3 |
| 20260505023005 | 9 | 9 | 0.0 | 1.6 | 0.00 | 0.00 | 0.00 | 67 | 1009.5 |
| 20260505022504 | 9 | 9 | 0.0 | 3.2 | 0.00 | 0.00 | 0.00 | 67 | 1009.7 |
| 20260505022012 | 10 | 9 | 0.0 | 22.5 | 0.00 | 0.00 | 0.00 | 66 | 1009.5 |
| 20260505021504 | 10 | 5 | 12.9 | 22.5 | 0.00 | 0.00 | 0.00 | 62 | 1009.5 |
| 20260505021009 | 10 | 49 | 4.8 | 8.0 | 0.00 | 0.00 | 0.00 | 62 | 1009.6 |
| 20260505020501 | 10 | 29 | 1.6 | 3.2 | 0.00 | 0.00 | 0.00 | 61 | 1009.7 |
| 20260505020014 | 10 | 30 | 0.0 | 4.8 | 0.00 | 0.00 | 0.00 | 59 | 1009.5 |
| 20260505020003 | 10 | 30 | 0.0 | 4.8 | 0.00 | 0.00 | 0.00 | 59 | 1000.2 |
| 20260505015459 | 10 | 30 | 0.0 | 4.8 | 0.00 | 0.00 | 0.00 | 61 | 1009.5 |
| 20260505015010 | 10 | 30 | 3.2 | 6.4 | 0.00 | 0.00 | 0.00 | 60 | 1009.6 |
| 20260505014504 | 10 | 43 | 1.6 | 8.0 | 0.00 | 0.00 | 0.00 | 62 | 1009.4 |
| 20260505014013 | 10 | 355 | 0.0 | 16.1 | 0.00 | 0.00 | 0.00 | 63 | 1009.5 |
| 20260505013504 | 10 | 20 | 8.0 | 22.5 | 0.00 | 0.00 | 0.00 | 62 | 1009.5 |
| 20260505013002 | 10 | 19 | 12.9 | 25.7 | 0.00 | 0.00 | 0.00 | 61 | 1000.2 |
| 20260505012505 | 10 | 31 | 16.1 | 35.4 | 0.00 | 0.00 | 0.00 | 59 | 1009.5 |
| 20260505012006 | 11 | 355 | 20.9 | 35.4 | 0.00 | 0.00 | 0.00 | 54 | 1009.2 |
| 20260505011506 | 11 | 9 | 12.9 | 25.7 | 0.00 | 0.00 | 0.00 | 49 | 999.8 |
| 20260505011013 | 12 | 21 | 12.9 | 27.4 | 0.00 | 0.00 | 0.00 | 47 | 1008.8 |
| 20260505010504 | 12 | 42 | 17.7 | 32.2 | 0.00 | 0.00 | 0.00 | 46 | 1008.6 |
| 20260505010012 | 13 | 34 | 16.1 | 27.4 | 0.00 | 0.00 | 0.00 | 42 | 999.0 |
| 20260505005504 | 13 | 11 | 14.5 | 19.3 | 0.00 | 0.00 | 0.00 | 39 | 1008.4 |
| 20260505005012 | 13 | 21 | 9.7 | 20.9 | 0.00 | 0.00 | 0.00 | 39 | 1008.3 |
| 20260505004503 | 13 | 27 | 8.0 | 22.5 | 0.00 | 0.00 | 0.00 | 38 | 998.8 |
| 20260505004010 | 13 | 20 | 14.5 | 24.1 | 0.00 | 0.00 | 0.00 | 38 | 1008.4 |
| 20260505003505 | 13 | 350 | 14.5 | 24.1 | 0.00 | 0.00 | 0.00 | 38 | 1008.3 |
| 20260505003010 | 13 | 355 | 4.8 | 16.1 | 0.00 | 0.00 | 0.00 | 38 | 1008.5 |
| 20260505003008 | 13 | 355 | 4.8 | 16.1 | 0.00 | 0.00 | 0.00 | 38 | 999.1 |
| 20260505002504 | 13 | 342 | 4.8 | 22.5 | 0.00 | 0.00 | 0.00 | 37 | 1008.4 |
| 20260505002010 | 13 | 17 | 11.3 | 22.5 | 0.00 | 0.00 | 0.00 | 37 | 1008.3 |
| 20260505001505 | 13 | 355 | 6.4 | 24.1 | 0.00 | 0.00 | 0.00 | 37 | 1008.2 |
| 20260505001009 | 14 | 58 | 14.5 | 35.4 | 0.00 | 0.00 | 0.00 | 36 | 1008.1 |
| 20260505000504 | 14 | 278 | 6.4 | 35.4 | 0.00 | 0.00 | 0.00 | 36 | 1008.2 |
| 20260505000004 | 14 | 64 | 8.0 | 25.7 | 0.00 | 0.00 | 0.00 | 35 | 998.6 |
| 20260504235504 | 14 | 28 | 9.7 | 22.5 | 0.00 | 0.00 | 0.00 | 35 | 1008.3 |
| 20260504235008 | 14 | 51 | 8.0 | 19.3 | 0.00 | 0.00 | 0.00 | 35 | 1008.3 |
| 20260504234505 | 14 | 345 | 4.8 | 12.9 | 0.00 | 0.00 | 0.00 | 35 | 1008.2 |
| 20260504234012 | 14 | 320 | 3.2 | 19.3 | 0.00 | 0.00 | 0.00 | 36 | 1008.2 |
| 20260504233005 | 14 | 341 | 4.8 | 33.8 | 0.00 | 0.00 | 0.00 | 37 | 1008.1 |
| 20260504233003 | 14 | 341 | 4.8 | 33.8 | 0.00 | 0.00 | 0.00 | 37 | 998.5 |
| 20260504232504 | 14 | 324 | 6.4 | 33.8 | 0.00 | 0.00 | 0.00 | 36 | 1008.1 |
| 20260504232005 | 14 | 319 | 8.0 | 25.7 | 0.00 | 0.00 | 0.00 | 36 | 1007.9 |
| 20260504231504 | 14 | 14 | 11.3 | 27.4 | 0.00 | 0.00 | 0.00 | 35 | 1007.7 |
| 20260504231502 | 14 | 14 | 11.3 | 27.4 | 0.00 | 0.00 | 0.00 | 35 | 998.1 |
| 20260504230504 | 14 | 351 | 14.5 | 40.2 | 0.00 | 0.00 | 0.00 | 35 | 1007.2 |
| 20260504230007 | 15 | 20 | 17.7 | 37.0 | 0.00 | 0.00 | 0.00 | 34 | 1007.2 |
| 20260504230004 | 15 | 20 | 17.7 | 37.0 | 0.00 | 0.00 | 0.00 | 34 | 997.6 |
| 20260504225504 | 15 | 360 | 20.9 | 37.0 | 0.00 | 0.00 | 0.00 | 32 | 1007.0 |
| 20260504225005 | 16 | 332 | 8.0 | 25.7 | 0.00 | 0.00 | 0.00 | 29 | 1007.0 |
| 20260504224504 | 16 | 35 | 16.1 | 20.9 | 0.00 | 0.00 | 0.00 | 27 | 1007.1 |
| 20260504224502 | 16 | 35 | 14.5 | 20.9 | 0.00 | 0.00 | 0.00 | 27 | 997.5 |
| 20260504224005 | 16 | 44 | 12.9 | 17.7 | 0.00 | 0.00 | 0.00 | 28 | 1007.1 |
| 20260504223504 | 16 | 34 | 12.9 | 24.1 | 0.00 | 0.00 | 0.00 | 28 | 1007.0 |
| 20260504223003 | 16 | 46 | 6.4 | 41.8 | 0.00 | 0.00 | 0.00 | 29 | 997.7 |
| 20260504222504 | 16 | 248 | 11.3 | 41.8 | 0.00 | 0.00 | 0.00 | 28 | 1007.3 |
| 20260504222005 | 16 | 297 | 11.3 | 20.9 | 0.00 | 0.00 | 0.00 | 26 | 1007.2 |
| 20260504221509 | 16 | 360 | 4.8 | 14.5 | 0.00 | 0.00 | 0.00 | 26 | 997.4 |
| 20260504221000 | 16 | 360 | 4.8 | 16.1 | 0.00 | 0.00 | 0.00 | 26 | 1007.0 |
| 20260504220007 | 17 | 327 | 8.0 | 16.1 | 0.00 | 0.00 | 0.00 | 25 | 1007.0 |
| 20260504220003 | 17 | 327 | 8.0 | 16.1 | 0.00 | 0.00 | 0.00 | 25 | 997.2 |
| 20260504215504 | 17 | 360 | 4.8 | 17.7 | 0.00 | 0.00 | 0.00 | 24 | 1006.9 |
| 20260504214504 | 17 | 15 | 8.0 | 17.7 | 0.00 | 0.00 | 0.00 | 23 | 1006.9 |
| 20260504214006 | 17 | 355 | 8.0 | 24.1 | 0.00 | 0.00 | 0.00 | 25 | 1006.9 |
| 20260504213504 | 17 | 12 | 17.7 | 24.1 | 0.00 | 0.00 | 0.00 | 23 | 1006.9 |
| 20260504213007 | 18 | 26 | 12.9 | 22.5 | 0.00 | 0.00 | 0.00 | 24 | 1006.9 |
| 20260504213003 | 18 | 26 | 11.3 | 22.5 | 0.00 | 0.00 | 0.00 | 24 | 997.1 |
| 20260504212505 | 18 | 69 | 12.9 | 19.3 | 0.00 | 0.00 | 0.00 | 23 | 1006.9 |
| 20260504212005 | 18 | 28 | 12.9 | 25.7 | 0.00 | 0.00 | 0.00 | 24 | 1007.0 |
| 20260504211506 | 18 | 34 | 12.9 | 25.7 | 0.00 | 0.00 | 0.00 | 24 | 1006.9 |
| 20260504211503 | 18 | 34 | 12.9 | 25.7 | 0.00 | 0.00 | 0.00 | 24 | 997.1 |
| 20260504211005 | 18 | 20 | 17.7 | 27.4 | 0.00 | 0.00 | 0.00 | 23 | 1007.1 |
| 20260504210505 | 19 | 24 | 16.1 | 27.4 | 0.00 | 0.00 | 0.00 | 22 | 1007.0 |
| 20260504210006 | 20 | 11 | 8.0 | 20.9 | 0.00 | 0.00 | 0.00 | 23 | 1007.1 |
| 20260504210003 | 20 | 11 | 8.0 | 20.9 | 0.00 | 0.00 | 0.00 | 23 | 997.2 |
| 20260504205504 | 19 | 9 | 9.7 | 22.5 | 0.00 | 0.00 | 0.00 | 23 | 1007.1 |
| 20260504205005 | 19 | 21 | 8.0 | 27.4 | 0.00 | 0.00 | 0.00 | 24 | 1007.2 |
| 20260504204504 | 18 | 355 | 8.0 | 27.4 | 0.00 | 0.00 | 0.00 | 24 | 1007.4 |
| 20260504204502 | 18 | 355 | 8.0 | 27.4 | 0.00 | 0.00 | 0.00 | 24 | 997.5 |
| 20260504204002 | 18 | 40 | 16.1 | 25.7 | 0.00 | 0.00 | 0.00 | 25 | 1007.3 |
| 20260504203505 | 18 | 19 | 16.1 | 27.4 | 0.00 | 0.00 | 0.00 | 25 | 1007.4 |
| 20260504203006 | 18 | 48 | 16.1 | 25.7 | 0.00 | 0.00 | 0.00 | 24 | 1007.4 |
| 20260504203003 | 18 | 48 | 16.1 | 25.7 | 0.00 | 0.00 | 0.00 | 24 | 997.6 |
| 20260504202505 | 18 | 18 | 16.1 | 24.1 | 0.00 | 0.00 | 0.00 | 24 | 1007.5 |
| 20260504202005 | 18 | 350 | 14.5 | 27.4 | 0.00 | 0.00 | 0.00 | 24 | 1007.6 |
| 20260504201504 | 18 | 11 | 9.7 | 22.5 | 0.00 | 0.00 | 0.00 | 27 | 1007.5 |
| 20260504201005 | 18 | 329 | 8.0 | 25.7 | 0.00 | 0.00 | 0.00 | 26 | 1007.6 |
| 20260504200504 | 17 | 343 | 8.0 | 25.7 | 0.00 | 0.00 | 0.00 | 27 | 1007.7 |
| 20260504200005 | 17 | 336 | 9.7 | 25.7 | 0.00 | 0.00 | 0.00 | 25 | 1007.6 |
| 20260504200003 | 17 | 336 | 8.0 | 25.7 | 0.00 | 0.00 | 0.00 | 25 | 997.9 |
| 20260504195504 | 18 | 12 | 8.0 | 30.6 | 0.00 | 0.00 | 0.00 | 24 | 1007.7 |
| 20260504195002 | 18 | 347 | 12.9 | 33.8 | 0.00 | 0.00 | 0.00 | 23 | 1007.6 |
| 20260504194504 | 19 | 188 | 11.3 | 20.9 | 0.00 | 0.00 | 0.00 | 21 | 1007.3 |
| 20260504194502 | 19 | 188 | 11.3 | 20.9 | 0.00 | 0.00 | 0.00 | 21 | 997.5 |
| 20260504194006 | 20 | 199 | 9.7 | 19.3 | 0.00 | 0.00 | 0.00 | 18 | 1007.4 |
| 20260504193505 | 20 | 165 | 11.3 | 20.9 | 0.00 | 0.00 | 0.00 | 20 | 1007.4 |
| 20260504193005 | 19 | 213 | 6.4 | 14.5 | 0.00 | 0.00 | 0.00 | 21 | 1007.3 |
| 20260504193003 | 19 | 213 | 6.4 | 14.5 | 0.00 | 0.00 | 0.00 | 21 | 997.5 |
| 20260504192504 | 19 | 163 | 6.4 | 14.5 | 0.00 | 0.00 | 0.00 | 20 | 1007.3 |
| 20260504192005 | 18 | 16 | 6.4 | 16.1 | 0.00 | 0.00 | 0.00 | 20 | 1007.3 |
| 20260504191504 | 19 | 37 | 9.7 | 14.5 | 0.00 | 0.00 | 0.00 | 20 | 1007.3 |
| 20260504191502 | 19 | 37 | 8.0 | 14.5 | 0.00 | 0.00 | 0.00 | 20 | 997.5 |
| 20260504191005 | 20 | 55 | 6.4 | 14.5 | 0.00 | 0.00 | 0.00 | 21 | 1007.4 |
| 20260504190505 | 19 | 327 | 6.4 | 19.3 | 0.00 | 0.00 | 0.00 | 23 | 1007.4 |
| 20260504190005 | 18 | 355 | 8.0 | 22.5 | 0.00 | 0.00 | 0.00 | 25 | 997.7 |
| 20260504185504 | 18 | 326 | 12.9 | 22.5 | 0.00 | 0.00 | 0.00 | 24 | 1007.6 |
| 20260504185002 | 18 | 281 | 14.5 | 22.5 | 0.00 | 0.00 | 0.00 | 22 | 1007.7 |
| 20260504184504 | 18 | 289 | 4.8 | 12.9 | 0.00 | 0.00 | 0.00 | 22 | 1007.7 |
| 20260504184502 | 18 | 289 | 3.2 | 12.9 | 0.00 | 0.00 | 0.00 | 22 | 998.0 |
| 20260504184005 | 18 | 311 | 4.8 | 12.9 | 0.00 | 0.00 | 0.00 | 21 | 1007.7 |
| 20260504183504 | 18 | 294 | 3.2 | 12.9 | 0.00 | 0.00 | 0.00 | 22 | 1007.8 |
| 20260504183006 | 18 | 288 | 6.4 | 12.9 | 0.00 | 0.00 | 0.00 | 22 | 1007.9 |
| 20260504183002 | 18 | 288 | 4.8 | 12.9 | 0.00 | 0.00 | 0.00 | 22 | 998.1 |
| 20260504182504 | 18 | 238 | 3.2 | 16.1 | 0.00 | 0.00 | 0.00 | 24 | 1007.9 |
| 20260504181505 | 17 | 300 | 8.0 | 17.7 | 0.00 | 0.00 | 0.00 | 21 | 998.2 |
| 20260504181005 | 17 | 290 | 9.7 | 17.7 | 0.00 | 0.00 | 0.00 | 23 | 1008.0 |
| 20260504180504 | 17 | 309 | 8.0 | 19.3 | 0.00 | 0.00 | 0.00 | 22 | 1008.1 |
| 20260504180006 | 18 | 309 | 8.0 | 24.1 | 0.00 | 0.00 | 0.00 | 22 | 1008.0 |
| 20260504180004 | 18 | 309 | 6.4 | 24.1 | 0.00 | 0.00 | 0.00 | 22 | 998.2 |
| 20260504175505 | 18 | 355 | 16.1 | 25.7 | 0.00 | 0.00 | 0.00 | 21 | 1008.1 |
| 20260504175006 | 18 | 348 | 9.7 | 27.4 | 0.00 | 0.00 | 0.00 | 22 | 1008.3 |
| 20260504174505 | 18 | 314 | 19.3 | 27.4 | 0.00 | 0.00 | 0.00 | 21 | 1008.4 |
| 20260504174503 | 18 | 314 | 17.7 | 27.4 | 0.00 | 0.00 | 0.00 | 21 | 998.6 |
| 20260504174005 | 18 | 309 | 6.4 | 20.9 | 0.00 | 0.00 | 0.00 | 24 | 1008.3 |
| 20260504173505 | 17 | 298 | 4.8 | 14.5 | 0.00 | 0.00 | 0.00 | 24 | 1008.6 |
| 20260504173006 | 17 | 239 | 6.4 | 17.7 | 0.00 | 0.00 | 0.00 | 23 | 1008.7 |
| 20260504173002 | 17 | 239 | 6.4 | 17.7 | 0.00 | 0.00 | 0.00 | 23 | 999.0 |
| 20260504172504 | 18 | 260 | 6.4 | 22.5 | 0.00 | 0.00 | 0.00 | 23 | 1008.7 |
| 20260504171503 | 18 | 285 | 3.2 | 20.9 | 0.00 | 0.00 | 0.00 | 23 | 999.0 |
| 20260504170505 | 18 | 296 | 8.0 | 20.9 | 0.00 | 0.00 | 0.00 | 21 | 1008.8 |
| 20260504151005 | 17 | 265 | 9.7 | 19.3 | 0.00 | 0.00 | 0.00 | 26 | 1009.4 |
| 20260504150504 | 16 | 261 | 9.7 | 19.3 | 0.00 | 0.00 | 0.00 | 27 | 1009.3 |
| 20260504140505 | 14 | 251 | 8.0 | 17.7 | 0.00 | 0.00 | 0.00 | 33 | 1009.3 |
| 20260504130505 | 8 | 211 | 3.2 | 8.0 | 0.00 | 0.00 | 0.00 | 45 | 1009.4 |
| 20260504110504 | 6 | 221 | 3.2 | 4.8 | 0.00 | 0.00 | 0.00 | 51 | 1009.3 |
| 20260504100504 | 5 | 257 | 3.2 | 4.8 | 0.00 | 0.00 | 0.00 | 56 | 1009.7 |
| 20260504082006 | 7 | 194 | 4.8 | 9.7 | 0.00 | 0.00 | 0.00 | 49 | 1010.1 |
| 20260504081503 | 7 | 213 | 3.2 | 6.4 | 0.00 | 0.00 | 0.00 | 49 | 1000.8 |
| 20260504080507 | 7 | 216 | 3.2 | 8.0 | 0.00 | 0.00 | 0.00 | 50 | 1010.2 |